N5RML-1 Weather Reports


Display with metric or nautical units.
time (UTC)temp
F
wind
direction
speed
MPH
gust
MPH
rain 1hr
in
rain 24hr
in
rain mn
in
humidity
%
barometer
mb
20260509211525 69 149 5.0 8.0 0.00 1.71 1.64 92 1012.7
20260509210532 70 156 3.0 5.0 0.01 1.78 1.64 92 1012.7
20260509205523 70 161 3.0 7.0 0.02 1.81 1.64 93 1012.6
20260509204530 69 147 4.0 7.0 0.04 1.90 1.64 93 1012.8
20260509203522 69 142 2.0 4.0 0.05 2.06 1.64 94 1012.8
20260509202609 69 0.0 0.0 0.06 2.15 1.64 94 1013.2
20260509201539 68 0.0 0.0 0.08 2.15 1.64 94 1013.8
20260509200626 68 160 2.0 5.0 0.08 2.14 1.63 94 1014.1
20260509195533 68 158 0.0 3.0 0.08 2.13 1.62 94 1014.0
20260509194523 68 158 1.0 3.0 0.07 2.11 1.60 95 1013.9
20260509193530 68 0.0 0.0 0.07 2.10 1.59 95 1014.0
20260509192522 68 0.0 0.0 0.08 2.09 1.58 95 1014.4
20260509191529 68 0.0 0.0 0.07 2.07 1.56 95 1014.7
20260509190537 68 158 0.0 1.0 0.07 2.06 1.55 95 1014.7
20260509185525 68 113 0.0 2.0 0.07 2.05 1.54 95 1014.4
20260509184533 68 135 0.0 1.0 0.07 2.04 1.53 95 1014.4
20260509183524 67 155 2.0 5.0 0.07 2.03 1.52 95 1014.1
20260509182531 67 143 2.0 6.0 0.06 2.01 1.50 95 1014.3
20260509181520 67 174 3.0 6.0 0.08 2.00 1.49 95 1014.1
20260509180528 67 147 1.0 4.0 0.10 1.99 1.48 95 1014.5
20260509175536 67 157 5.0 8.0 0.14 1.98 1.47 95 1014.3
20260509174526 67 150 3.0 5.0 0.26 1.97 1.46 95 1014.0
20260509173534 67 171 3.0 7.0 0.31 1.96 1.45 95 1014.6
20260509172524 67 122 2.0 4.0 0.32 1.95 1.44 95 1014.9
20260509171531 67 160 2.0 6.0 0.31 1.92 1.41 95 1014.9
20260509170523 66 157 3.0 6.0 0.31 1.89 1.38 95 1015.5
20260509165530 66 36 1.0 5.0 0.30 1.84 1.33 95 1014.6
20260509164537 66 0.0 0.0 0.26 1.71 1.20 95 1015.5
20260509163526 66 129 1.0 4.0 0.27 1.65 1.14 94 1015.3
20260509162534 66 143 3.0 4.0 0.25 1.63 1.12 94 1015.1
20260509161524 66 60 3.0 4.0 0.23 1.61 1.10 94 1015.2
20260509160532 66 116 1.0 4.0 0.20 1.58 1.07 94 1015.9
20260509155522 66 122 3.0 6.0 0.17 1.54 1.03 94 1015.3
20260509154529 67 41 3.0 7.0 0.08 1.45 0.94 93 1015.0
20260509153537 67 55 3.0 6.0 0.01 1.38 0.87 93 1015.2
20260509152528 67 54 6.0 9.0 0.01 1.38 0.87 93 1014.8
20260509151536 67 46 2.0 6.0 0.02 1.38 0.87 93 1015.2
20260509150525 68 8 4.0 7.0 0.04 1.38 0.87 94 1014.8
20260509145532 68 336 1.0 5.0 0.06 1.37 0.86 94 1014.9
20260509144522 68 30 5.0 11.0 0.09 1.37 0.86 94 1014.5
20260509143551 68 92 3.0 6.0 0.25 1.37 0.86 94 1014.9
20260509142519 68 18 3.0 7.0 0.45 1.37 0.86 94 1015.2
20260509141528 68 11 4.0 5.0 0.76 1.36 0.85 94 1015.3
20260509140556 68 360 3.0 6.0 0.82 1.34 0.83 94 1015.5
20260509135525 68 24 2.0 6.0 0.79 1.31 0.80 94 1015.4
20260509134532 68 17 3.0 6.0 0.76 1.28 0.77 93 1015.1
20260509133522 69 17 4.0 5.0 0.60 1.12 0.61 93 1015.0
20260509132530 69 338 5.0 10.0 0.40 0.92 0.41 92 1015.0
20260509131537 71 318 9.0 13.0 0.08 0.60 0.09 88 1014.6
20260509130529 75 324 4.0 8.0 0.00 0.52 0.01 89 1014.5
20260509125536 75 142 4.0 7.0 0.00 0.52 0.01 89 1012.5
20260509124524 74 172 4.0 6.0 0.00 0.52 0.01 89 1012.6
20260509123532 74 158 4.0 5.0 0.00 0.52 0.01 89 1012.5
20260509122521 74 139 5.0 7.0 0.00 0.52 0.01 88 1012.3
20260509121531 74 147 4.0 7.0 0.00 0.52 0.01 88 1012.2
20260509120600 73 149 5.0 7.0 0.00 0.52 0.01 88 1012.1
20260509115547 73 152 5.0 8.0 0.00 0.52 0.01 88 1012.0
20260509114535 73 159 4.0 5.0 0.00 0.52 0.01 88 1012.0
20260509113524 73 145 4.0 6.0 0.00 0.52 0.01 87 1011.8
20260509112532 73 160 4.0 6.0 0.00 0.52 0.01 87 1011.7
20260509111522 73 157 4.0 7.0 0.00 0.52 0.01 86 1011.6
20260509110550 73 155 3.0 6.0 0.00 0.52 0.01 86 1011.7
20260509105538 73 144 3.0 5.0 0.00 0.52 0.01 86 1011.7
20260509104527 74 148 3.0 6.0 0.00 0.52 0.01 85 1011.6
20260509103535 74 150 4.0 7.0 0.00 0.52 0.01 84 1011.3
20260509102527 74 138 4.0 7.0 0.00 0.52 0.01 84 1011.1
20260509101532 74 172 6.0 7.0 0.00 0.52 0.01 83 1011.1
20260509100521 73 149 6.0 8.0 0.00 0.52 0.01 83 1010.9
20260509095529 73 162 5.0 8.0 0.00 0.52 0.01 83 1010.9
20260509094558 73 147 5.0 8.0 0.00 0.52 0.01 83 1011.2
20260509093527 73 154 3.0 5.0 0.00 0.52 0.01 83 1011.2
20260509092534 73 149 5.0 9.0 0.00 0.52 0.01 83 1011.0
20260509091524 73 158 6.0 8.0 0.00 0.52 0.01 82 1011.3
20260509090531 73 146 5.0 7.0 0.00 0.52 0.01 82 1011.4
20260509085522 73 157 7.0 11.0 0.00 0.52 0.01 82 1011.4
20260509084550 73 156 5.0 7.0 0.01 0.52 0.01 83 1011.6
20260509083540 72 149 4.0 6.0 0.01 0.52 0.01 84 1011.9
20260509082527 72 168 4.0 5.0 0.01 0.52 0.01 84 1011.9
20260509081534 72 168 5.0 8.0 0.01 0.52 0.01 85 1012.1
20260509080525 72 154 6.0 8.0 0.01 0.52 0.01 85 1012.6
20260509075533 71 160 5.0 8.0 0.01 0.52 0.01 87 1012.2
20260509074524 71 160 4.0 7.0 0.00 0.51 0.00 88 1012.5
20260509073529 71 163 4.0 5.0 0.00 0.51 0.00 90 1012.9
20260509072537 71 151 2.0 3.0 0.00 0.51 0.00 90 1013.0
20260509071526 71 147 1.0 3.0 0.00 0.51 0.00 91 1013.1
20260509070744 71 0.0 0.0 0.00 0.51 0.00 92 1013.1
20260509070555 70 0.0 0.0 0.00 0.51 0.00 92 1013.3
20260509065523 70 0.0 0.0 0.00 0.51 0.00 93 1013.5
20260509064532 70 0.0 0.0 0.00 0.51 0.00 94 1013.7
20260509063521 70 0.0 0.0 0.00 0.51 0.00 94 1014.0
20260509062531 70 0.0 0.0 0.00 0.51 0.00 94 1013.9
20260509061537 70 0.0 0.0 0.00 0.51 0.00 94 1013.5
20260509060527 70 0.0 0.0 0.00 0.51 0.00 94 1014.1
20260509055535 70 0.0 0.0 0.00 0.51 0.00 94 1014.4
20260509054525 70 0.0 0.0 0.00 0.51 0.00 93 1014.5
20260509053532 70 0.0 0.0 0.00 0.51 0.00 93 1013.9
20260509052542 70 0.0 0.0 0.00 0.51 0.00 93 1014.1
20260509051533 70 215 1.0 3.0 0.00 0.51 0.00 93 1013.9
20260509050620 70 0.0 0.0 0.00 0.51 0.00 93 1013.8
20260509045527 70 158 0.0 2.0 0.00 0.51 0.51 93 1013.7
20260509044537 70 0.0 0.0 0.00 0.51 0.51 93 1014.1
20260509043525 70 0.0 0.0 0.00 0.51 0.51 93 1013.8
20260509042533 70 158 0.0 2.0 0.00 0.51 0.51 93 1013.5
20260509041604 70 154 1.0 4.0 0.00 0.51 0.51 93 1013.6
20260509040552 70 157 3.0 5.0 0.00 0.51 0.51 93 1013.5
20260509035521 70 158 0.0 1.0 0.00 0.51 0.51 94 1013.4
20260509034528 70 149 1.0 5.0 0.00 0.51 0.51 94 1013.2
20260509033537 70 141 3.0 5.0 0.00 0.51 0.51 94 1013.2
20260509032546 70 151 5.0 7.0 0.00 0.51 0.51 94 1013.1
20260509031533 69 156 4.0 6.0 0.00 0.51 0.51 94 1013.3
20260509030523 69 154 2.0 3.0 0.00 0.51 0.51 94 1013.5
20260509025530 69 135 0.0 2.0 0.00 0.51 0.51 94 1013.6
20260509024520 69 0.0 0.0 0.00 0.51 0.51 94 1013.5
20260509023527 69 165 1.0 3.0 0.00 0.51 0.51 94 1013.3
20260509022535 69 145 1.0 3.0 0.00 0.51 0.51 94 1013.1
20260509021525 69 148 2.0 5.0 0.00 0.51 0.51 94 1012.8
20260509020533 69 153 3.0 6.0 0.00 0.51 0.51 94 1012.9
20260509015523 69 151 3.0 6.0 0.00 0.51 0.51 94 1012.8
20260509014530 69 146 3.0 5.0 0.00 0.51 0.51 94 1012.9
20260509013521 69 124 4.0 7.0 0.00 0.51 0.51 94 1012.8
20260509012528 69 145 4.0 7.0 0.00 0.51 0.51 94 1012.7
20260509011537 69 159 3.0 6.0 0.00 0.51 0.51 94 1012.9
20260509010605 69 180 3.0 6.0 0.00 0.51 0.51 94 1012.8
20260509005533 69 115 2.0 4.0 0.00 0.51 0.51 94 1012.8
20260509004522 69 102 2.0 3.0 0.00 0.51 0.51 94 1013.0
20260509003530 69 144 3.0 4.0 0.00 0.51 0.51 94 1012.9
20260509002520 70 140 1.0 3.0 0.00 0.51 0.51 94 1013.1
20260509001528 69 45 0.0 3.0 0.00 0.51 0.51 94 1013.4
20260509000537 69 0.0 0.0 0.00 0.51 0.51 94 1013.6
20260508235528 69 0.0 0.0 0.00 0.51 0.51 94 1013.8
20260508234533 69 0.0 0.0 0.00 0.51 0.51 94 1013.7
20260508233524 69 315 0.0 3.0 0.01 0.51 0.51 94 1013.9
20260508232530 69 35 2.0 6.0 0.01 0.51 0.51 94 1013.6
20260508231520 69 309 3.0 6.0 0.02 0.51 0.51 93 1013.6
20260508230529 69 167 3.0 6.0 0.02 0.51 0.51 93 1013.3
20260508225536 68 122 4.0 8.0 0.04 0.51 0.51 93 1013.6
20260508224528 68 167 7.0 11.0 0.04 0.51 0.51 93 1013.5
20260508223554 68 143 5.0 8.0 0.03 0.50 0.50 93 1013.9
20260508222543 68 97 3.0 5.0 0.04 0.50 0.50 93 1013.5
20260508221531 68 167 3.0 8.0 0.05 0.49 0.49 93 1013.4
20260508220540 68 130 3.0 6.0 0.12 0.49 0.49 93 1013.5
20260508215528 68 97 2.0 5.0 0.13 0.47 0.47 93 1014.1
20260508214556 68 82 2.0 5.0 0.22 0.47 0.47 93 1014.3
20260508213525 68 24 3.0 6.0 0.38 0.47 0.47 93 1014.6
20260508212533 68 91 3.0 6.0 0.46 0.46 0.46 93 1015.1